User: anonymous   Login
Location: Unspecified
(0.0000°N, 0.0000°E)
Time: 23:05:29
(UTC+00:00)
Language:

Landsat 7 - Orbit

View from above orbital plane
View from above orbital plane
View from above satellite
View from above satellite

Ground track
Ground track

The orbit data is extracted from the following two-line orbital elements,

1 25682U 99020A   16177.73093678  .00000248  00000-0  65076-4 0  9990
2 25682  98.2115 248.0170 0001131  58.9330 301.1996 14.57112562914688
Epoch (UTC): 25 June 2016 17:32:32
Eccentricity: 0.0001131
inclination: 98.2115°
perigee height: 702 km
apogee height: 703 km
right ascension of ascending node: 248.0170°
argument of perigee: 58.9330°
revolutions per day: 14.57112562
mean anomaly at epoch: 301.1996°
orbit number at epoch: 91468

The dashed part of the orbit path shows where the satellite is in the earth's shadow,  

DLR